Tracking 29892 objects as of 21-Nov-2024
HD Live streaming from Space Station
objects crossing your sky now

ONEWEB-0029

Track ONEWEB-0029 now!
10-day predictions
ONEWEB-0029 is classified as:


NORAD ID: 45445
Int'l Code: 2020-020X
Perigee: 1,223.5 km
Apogee: 1,226.1 km
Inclination: 87.9 °
Period: 109.8 minutes
Semi major axis: 7595 km
RCS: Unknown
Launch date: March 21, 2020
Source: United Kingdom (UK)
Launch site: TYURATAM MISSILE AND SPACE COMPLEX (TTMTR)
Your satellite tracking list
Your tracking list is empty




NASA's NSSDC Master Catalog

Two Line Element Set (TLE):
1 45445U 20020X   24325.49676302 -.00000288  00000-0 -84860-3 0  9998
2 45445  87.8879 135.3629 0001719  90.5161 269.6164 13.11414979227465
Source of the keplerian elements: AFSPC